| time (UTC) | temp F | wind direction | speed MPH | gust MPH | rain 1hr in | rain 24hr in | rain mn in | humidity % | barometer mb |
| 20260509010008 | 39 | 102 | 0.0 | 0.0 | 0.00 | 0.00 | 0.00 | 70 | 1022.9 |
| 20260509005006 | 40 | 102 | 0.0 | 0.0 | 0.00 | 0.00 | 0.00 | 68 | 1022.9 |
| 20260509004006 | 40 | 103 | 0.0 | 1.0 | 0.00 | 0.00 | 0.00 | 67 | 1023.0 |
| 20260509003008 | 40 | 105 | 0.0 | 0.0 | 0.00 | 0.00 | 0.00 | 65 | 1023.0 |
| 20260509002005 | 41 | 105 | 0.0 | 0.0 | 0.00 | 0.00 | 0.00 | 65 | 1023.0 |
| 20260509001006 | 41 | 105 | 0.0 | 0.0 | 0.00 | 0.00 | 0.00 | 65 | 1023.0 |
| 20260509000008 | 42 | 105 | 0.0 | 0.0 | 0.00 | 0.00 | 0.00 | 63 | 1023.1 |
| 20260508235005 | 42 | 105 | 0.0 | 1.0 | 0.00 | 0.00 | 0.00 | 63 | 1023.1 |
| 20260508234005 | 43 | 105 | 0.0 | 1.0 | 0.00 | 0.00 | 0.00 | 61 | 1023.3 |
| 20260508233008 | 43 | 105 | 0.0 | 2.0 | 0.00 | 0.00 | 0.00 | 60 | 1023.4 |
| 20260508232005 | 43 | 106 | 1.0 | 5.0 | 0.00 | 0.00 | 0.00 | 59 | 1023.4 |
| 20260508231005 | 44 | 112 | 2.0 | 10.0 | 0.00 | 0.00 | 0.00 | 59 | 1023.4 |
| 20260508230007 | 44 | 119 | 4.0 | 10.0 | 0.00 | 0.00 | 0.00 | 60 | 1023.3 |
| 20260508225006 | 44 | 120 | 5.0 | 12.0 | 0.00 | 0.00 | 0.00 | 60 | 1023.4 |
| 20260508224006 | 43 | 111 | 2.0 | 8.0 | 0.00 | 0.00 | 0.00 | 63 | 1023.2 |
| 20260508223008 | 43 | 116 | 3.0 | 9.0 | 0.00 | 0.00 | 0.00 | 67 | 1023.2 |
| 20260508222006 | 43 | 115 | 2.0 | 5.0 | 0.00 | 0.00 | 0.00 | 72 | 1023.1 |
| 20260508221005 | 43 | 105 | 1.0 | 3.0 | 0.00 | 0.00 | 0.00 | 74 | 1023.1 |
| 20260508220008 | 43 | 105 | 0.0 | 3.0 | 0.00 | 0.00 | 0.00 | 75 | 1023.1 |
| 20260508215006 | 43 | 129 | 0.0 | 0.0 | 0.00 | 0.00 | 0.00 | 74 | 1023.1 |
| 20260508214006 | 43 | 129 | 0.0 | 0.0 | 0.00 | 0.00 | 0.00 | 73 | 1023.1 |
| 20260508213008 | 43 | 129 | 0.0 | 0.0 | 0.00 | 0.00 | 0.00 | 70 | 1023.0 |
| 20260508212006 | 43 | 129 | 0.0 | 0.0 | 0.00 | 0.00 | 0.00 | 68 | 1023.0 |
| 20260508211006 | 44 | 129 | 0.0 | 0.0 | 0.00 | 0.00 | 0.00 | 67 | 1022.9 |
| 20260508210008 | 44 | 129 | 0.0 | 0.0 | 0.00 | 0.00 | 0.00 | 67 | 1022.9 |
| 20260508205006 | 45 | 129 | 0.0 | 0.0 | 0.00 | 0.00 | 0.00 | 66 | 1022.9 |
| 20260508204006 | 45 | 129 | 0.0 | 0.0 | 0.00 | 0.00 | 0.00 | 63 | 1022.8 |
| 20260508203008 | 46 | 129 | 0.0 | 0.0 | 0.00 | 0.00 | 0.00 | 62 | 1022.6 |
| 20260508202006 | 46 | 129 | 0.0 | 0.0 | 0.00 | 0.00 | 0.00 | 60 | 1022.5 |
| 20260508201005 | 47 | 129 | 0.0 | 0.0 | 0.00 | 0.00 | 0.00 | 58 | 1022.5 |
| 20260508200009 | 47 | 129 | 0.0 | 0.0 | 0.00 | 0.00 | 0.00 | 57 | 1022.5 |
| 20260508195005 | 48 | 129 | 0.0 | 0.0 | 0.00 | 0.00 | 0.00 | 56 | 1022.5 |
| 20260508194005 | 48 | 129 | 0.0 | 1.0 | 0.00 | 0.00 | 0.00 | 55 | 1022.5 |
| 20260508193007 | 49 | 129 | 1.0 | 2.0 | 0.00 | 0.00 | 0.00 | 53 | 1022.1 |
| 20260508192005 | 50 | 129 | 0.0 | 2.0 | 0.00 | 0.00 | 0.00 | 51 | 1022.0 |
| 20260508191005 | 50 | 129 | 0.0 | 3.0 | 0.00 | 0.00 | 0.00 | 50 | 1022.0 |
| 20260508190016 | 51 | 129 | 1.0 | 6.0 | 0.00 | 0.00 | 0.00 | 49 | 1022.0 |
| 20260508185005 | 52 | 138 | 2.0 | 6.0 | 0.00 | 0.00 | 0.00 | 51 | 1022.0 |
| 20260508184006 | 53 | 132 | 2.0 | 5.0 | 0.00 | 0.00 | 0.00 | 52 | 1021.7 |
| 20260508183007 | 53 | 131 | 2.0 | 6.0 | 0.00 | 0.00 | 0.00 | 51 | 1021.6 |
| 20260508182005 | 54 | 149 | 3.0 | 9.0 | 0.00 | 0.00 | 0.00 | 50 | 1021.5 |
| 20260508181005 | 54 | 144 | 5.0 | 9.0 | 0.00 | 0.00 | 0.00 | 50 | 1021.5 |
| 20260508180007 | 55 | 154 | 4.0 | 10.0 | 0.00 | 0.00 | 0.00 | 49 | 1021.5 |
| 20260508175005 | 55 | 152 | 5.0 | 10.0 | 0.00 | 0.00 | 0.00 | 50 | 1021.5 |
| 20260508174005 | 55 | 160 | 5.0 | 12.0 | 0.00 | 0.00 | 0.00 | 49 | 1021.5 |
| 20260508173008 | 55 | 148 | 6.0 | 12.0 | 0.00 | 0.00 | 0.00 | 48 | 1021.4 |
| 20260508172006 | 55 | 163 | 4.0 | 13.0 | 0.00 | 0.00 | 0.00 | 47 | 1021.4 |
| 20260508171005 | 55 | 151 | 2.0 | 12.0 | 0.00 | 0.00 | 0.00 | 46 | 1021.3 |
| 20260508170007 | 55 | 154 | 6.0 | 12.0 | 0.00 | 0.00 | 0.00 | 44 | 1021.2 |
| 20260508165005 | 56 | 150 | 3.0 | 12.0 | 0.00 | 0.00 | 0.00 | 43 | 1021.2 |
| 20260508164005 | 56 | 152 | 3.0 | 12.0 | 0.00 | 0.00 | 0.00 | 42 | 1021.3 |
| 20260508163008 | 56 | 160 | 3.0 | 12.0 | 0.00 | 0.00 | 0.00 | 41 | 1021.2 |
| 20260508162005 | 57 | 165 | 6.0 | 12.0 | 0.00 | 0.00 | 0.00 | 39 | 1021.2 |
| 20260508161005 | 57 | 150 | 6.0 | 14.0 | 0.00 | 0.00 | 0.00 | 38 | 1021.3 |
| 20260508160007 | 58 | 150 | 6.0 | 12.0 | 0.00 | 0.00 | 0.00 | 37 | 1021.2 |
| 20260508155005 | 58 | 148 | 6.0 | 12.0 | 0.00 | 0.00 | 0.00 | 37 | 1021.1 |
| 20260508154005 | 58 | 140 | 7.0 | 16.0 | 0.00 | 0.00 | 0.00 | 37 | 1021.0 |
| 20260508153008 | 59 | 143 | 8.0 | 17.0 | 0.00 | 0.00 | 0.00 | 39 | 1021.1 |
| 20260508152006 | 59 | 146 | 6.0 | 16.0 | 0.00 | 0.00 | 0.00 | 37 | 1021.2 |
| 20260508151005 | 59 | 130 | 6.0 | 15.0 | 0.00 | 0.00 | 0.00 | 38 | 1021.3 |
| 20260508150009 | 60 | 146 | 7.0 | 17.0 | 0.00 | 0.00 | 0.00 | 39 | 1021.3 |
| 20260508145005 | 60 | 140 | 10.0 | 17.0 | 0.00 | 0.00 | 0.00 | 38 | 1021.4 |
| 20260508144005 | 61 | 142 | 7.0 | 17.0 | 0.00 | 0.00 | 0.00 | 37 | 1021.5 |
| 20260508143009 | 61 | 149 | 7.0 | 15.0 | 0.00 | 0.00 | 0.00 | 39 | 1021.5 |
| 20260508142006 | 61 | 120 | 5.0 | 18.0 | 0.00 | 0.00 | 0.00 | 36 | 1021.5 |
| 20260508141006 | 61 | 136 | 6.0 | 16.0 | 0.00 | 0.00 | 0.00 | 37 | 1021.5 |
| 20260508140008 | 61 | 121 | 2.0 | 13.0 | 0.00 | 0.00 | 0.00 | 36 | 1021.5 |
| 20260508135006 | 62 | 136 | 7.0 | 15.0 | 0.00 | 0.00 | 0.00 | 35 | 1021.5 |
| 20260508134006 | 62 | 157 | 7.0 | 15.0 | 0.00 | 0.00 | 0.00 | 38 | 1021.5 |
| 20260508133008 | 62 | 146 | 5.0 | 15.0 | 0.00 | 0.00 | 0.00 | 37 | 1021.5 |
| 20260508132006 | 62 | 132 | 5.0 | 15.0 | 0.00 | 0.00 | 0.00 | 37 | 1021.6 |
| 20260508131006 | 62 | 145 | 7.0 | 12.0 | 0.00 | 0.00 | 0.00 | 37 | 1021.6 |
| 20260508130008 | 62 | 107 | 2.0 | 13.0 | 0.00 | 0.00 | 0.00 | 37 | 1021.6 |
| 20260508125006 | 62 | 159 | 5.0 | 13.0 | 0.00 | 0.00 | 0.00 | 39 | 1021.6 |
| 20260508124006 | 62 | 170 | 6.0 | 14.0 | 0.00 | 0.00 | 0.00 | 39 | 1021.6 |
| 20260508123008 | 62 | 158 | 5.0 | 12.0 | 0.00 | 0.00 | 0.00 | 39 | 1021.8 |
| 20260508122006 | 61 | 149 | 9.0 | 15.0 | 0.00 | 0.00 | 0.00 | 40 | 1021.9 |
| 20260508121005 | 61 | 143 | 5.0 | 14.0 | 0.00 | 0.00 | 0.00 | 39 | 1021.8 |
| 20260508120008 | 61 | 149 | 6.0 | 12.0 | 0.00 | 0.00 | 0.00 | 39 | 1021.8 |
| 20260508115006 | 61 | 144 | 2.0 | 14.0 | 0.00 | 0.00 | 0.00 | 40 | 1021.8 |
| 20260508114006 | 61 | 149 | 5.0 | 12.0 | 0.00 | 0.00 | 0.00 | 37 | 1021.8 |
| 20260508113009 | 60 | 158 | 5.0 | 14.0 | 0.00 | 0.00 | 0.00 | 38 | 1021.9 |
| 20260508112006 | 60 | 152 | 8.0 | 14.0 | 0.00 | 0.00 | 0.00 | 37 | 1021.9 |
| 20260508111006 | 60 | 135 | 4.0 | 13.0 | 0.00 | 0.00 | 0.00 | 38 | 1021.9 |
| 20260508110008 | 60 | 154 | 7.0 | 15.0 | 0.00 | 0.00 | 0.00 | 37 | 1021.8 |
| 20260508105006 | 60 | 130 | 8.0 | 15.0 | 0.00 | 0.00 | 0.00 | 34 | 1021.9 |
| 20260508104005 | 60 | 132 | 5.0 | 17.0 | 0.00 | 0.00 | 0.00 | 34 | 1021.8 |
| 20260508103008 | 60 | 122 | 9.0 | 15.0 | 0.00 | 0.00 | 0.00 | 35 | 1021.8 |
| 20260508102006 | 60 | 141 | 10.0 | 17.0 | 0.00 | 0.00 | 0.00 | 38 | 1021.8 |
| 20260508101006 | 59 | 136 | 9.0 | 16.0 | 0.00 | 0.00 | 0.00 | 38 | 1021.8 |
| 20260508100008 | 59 | 149 | 9.0 | 16.0 | 0.00 | 0.00 | 0.00 | 42 | 1021.8 |
| 20260508095006 | 58 | 130 | 4.0 | 15.0 | 0.00 | 0.00 | 0.00 | 43 | 1021.8 |
| 20260508094005 | 58 | 127 | 4.0 | 16.0 | 0.00 | 0.00 | 0.00 | 48 | 1021.8 |
| 20260508093008 | 58 | 160 | 6.0 | 16.0 | 0.00 | 0.00 | 0.00 | 51 | 1021.7 |
| 20260508092006 | 58 | 123 | 6.0 | 15.0 | 0.00 | 0.00 | 0.00 | 55 | 1021.5 |
| 20260508091005 | 59 | 136 | 7.0 | 15.0 | 0.00 | 0.00 | 0.00 | 57 | 1021.5 |
| 20260508090008 | 58 | 136 | 7.0 | 17.0 | 0.00 | 0.00 | 0.00 | 57 | 1021.5 |
| 20260508085005 | 58 | 114 | 6.0 | 12.0 | 0.00 | 0.00 | 0.00 | 58 | 1021.5 |
| 20260508084005 | 58 | 121 | 4.0 | 13.0 | 0.00 | 0.00 | 0.00 | 60 | 1021.5 |
| 20260508083008 | 57 | 149 | 5.0 | 10.0 | 0.00 | 0.00 | 0.00 | 63 | 1021.4 |
| 20260508082005 | 56 | 133 | 2.0 | 12.0 | 0.00 | 0.00 | 0.00 | 64 | 1021.3 |
| 20260508081005 | 55 | 125 | 5.0 | 12.0 | 0.00 | 0.00 | 0.00 | 64 | 1021.3 |
| 20260508080008 | 55 | 75 | 0.0 | 7.0 | 0.00 | 0.00 | 0.00 | 69 | 1021.3 |
| 20260508075006 | 54 | 123 | 4.0 | 13.0 | 0.00 | 0.00 | 0.00 | 68 | 1021.2 |
| 20260508074005 | 54 | 124 | 3.0 | 9.0 | 0.00 | 0.00 | 0.00 | 71 | 1021.0 |
| 20260508073009 | 53 | 126 | 2.0 | 9.0 | 0.00 | 0.00 | 0.00 | 74 | 1021.0 |
| 20260508072006 | 52 | 111 | 2.0 | 9.0 | 0.00 | 0.00 | 0.00 | 75 | 1020.9 |
| 20260508071006 | 52 | 135 | 0.0 | 3.0 | 0.00 | 0.00 | 0.00 | 76 | 1020.9 |
| 20260508070008 | 51 | 102 | 1.0 | 3.0 | 0.00 | 0.00 | 0.00 | 77 | 1020.8 |
| 20260508065006 | 51 | 67 | 0.0 | 2.0 | 0.00 | 0.00 | 0.00 | 79 | 1020.7 |
| 20260508064005 | 50 | 73 | 0.0 | 1.0 | 0.00 | 0.00 | 0.00 | 81 | 1020.5 |
| 20260508063008 | 50 | 84 | 0.0 | 5.0 | 0.00 | 0.00 | 0.00 | 83 | 1020.4 |
| 20260508062005 | 49 | 63 | 0.0 | 2.0 | 0.00 | 0.00 | 0.00 | 85 | 1020.4 |
| 20260508061006 | 48 | 63 | 1.0 | 3.0 | 0.00 | 0.00 | 0.00 | 88 | 1020.2 |
| 20260508060008 | 48 | 41 | 0.0 | 0.0 | 0.00 | 0.00 | 0.00 | 90 | 1020.2 |
| 20260508055006 | 47 | 34 | 0.0 | 0.0 | 0.00 | 0.00 | 0.00 | 91 | 1020.2 |
| 20260508054005 | 47 | 34 | 0.0 | 0.0 | 0.00 | 0.00 | 0.00 | 91 | 1020.0 |
| 20260508053008 | 46 | 34 | 0.0 | 0.0 | 0.00 | 0.00 | 0.00 | 91 | 1020.0 |
| 20260508052006 | 46 | 34 | 0.0 | 0.0 | 0.00 | 0.00 | 0.00 | 91 | 1020.0 |
| 20260508051006 | 46 | 34 | 0.0 | 0.0 | 0.00 | 0.00 | 0.00 | 91 | 1020.0 |
| 20260508050008 | 45 | 34 | 0.0 | 0.0 | 0.00 | 0.00 | 0.00 | 91 | 1020.0 |
| 20260508045006 | 45 | 34 | 0.0 | 0.0 | 0.00 | 0.00 | 0.00 | 92 | 1019.9 |
| 20260508044006 | 44 | 34 | 0.0 | 0.0 | 0.00 | 0.00 | 0.00 | 92 | 1019.9 |
| 20260508043008 | 43 | 34 | 0.0 | 0.0 | 0.00 | 0.00 | 0.00 | 91 | 1019.9 |
| 20260508042006 | 42 | 34 | 0.0 | 0.0 | 0.00 | 0.00 | 0.00 | 91 | 1019.9 |
| 20260508041005 | 42 | 34 | 0.0 | 0.0 | 0.00 | 0.00 | 0.00 | 91 | 1019.8 |
| 20260508040015 | 41 | 34 | 0.0 | 0.0 | 0.00 | 0.00 | 0.00 | 91 | 1019.7 |
| 20260508035006 | 41 | 34 | 0.0 | 0.0 | 0.00 | 0.00 | 0.00 | 91 | 1019.6 |
| 20260508034007 | 41 | 34 | 0.0 | 0.0 | 0.00 | 0.00 | 0.00 | 90 | 1019.5 |
| 20260508033009 | 41 | 34 | 0.0 | 0.0 | 0.00 | 0.00 | 0.00 | 90 | 1019.5 |
| 20260508032007 | 42 | 34 | 0.0 | 0.0 | 0.00 | 0.00 | 0.00 | 90 | 1019.5 |
| 20260508031007 | 42 | 34 | 0.0 | 0.0 | 0.00 | 0.00 | 0.00 | 90 | 1019.4 |
| 20260508030007 | 42 | 34 | 0.0 | 0.0 | 0.00 | 0.00 | 0.00 | 90 | 1019.4 |
| 20260508025005 | 42 | 34 | 0.0 | 0.0 | 0.00 | 0.00 | 0.00 | 90 | 1019.4 |
| 20260508024005 | 41 | 34 | 0.0 | 0.0 | 0.00 | 0.00 | 0.00 | 90 | 1019.3 |
| 20260508023007 | 42 | 34 | 0.0 | 0.0 | 0.00 | 0.00 | 0.00 | 90 | 1019.3 |
| 20260508022006 | 41 | 34 | 0.0 | 0.0 | 0.00 | 0.00 | 0.00 | 89 | 1019.3 |
| 20260508021005 | 41 | 34 | 0.0 | 0.0 | 0.00 | 0.00 | 0.00 | 89 | 1019.3 |
| 20260508020008 | 41 | 34 | 0.0 | 0.0 | 0.00 | 0.00 | 0.00 | 89 | 1019.3 |
| 20260508015005 | 41 | 34 | 0.0 | 0.0 | 0.00 | 0.00 | 0.00 | 88 | 1019.3 |
| 20260508014006 | 41 | 34 | 0.0 | 0.0 | 0.00 | 0.00 | 0.00 | 88 | 1019.2 |
| 20260508013008 | 41 | 34 | 0.0 | 0.0 | 0.00 | 0.00 | 0.00 | 88 | 1019.1 |
| 20260508012006 | 41 | 34 | 0.0 | 0.0 | 0.00 | 0.00 | 0.00 | 87 | 1019.0 |
| 20260508011005 | 42 | 34 | 0.0 | 0.0 | 0.00 | 0.00 | 0.00 | 87 | 1019.1 |